Other Surface Observations
Issued by NWS

Home | Current Version | Previous Version | Text Only | Print | Product List | Glossary On
Versions: 1 2 3 4 5 6 7 8 9 10 11 12 13 14 15 16 17 18 19 20 21 22 23 24 25 26 27 28 29 30 31 32 33 34 35 36 37 38 39 40 41 42 43 44 45 46 47 48 49 50
332
SXUS52 KTAE 241918
OSOTAE
OSOTAE
North Florida/South Alabama/Southwest Georgia Weather Roundup
National Weather Service Tallahassee Florida
300 PM EDT FRI MAR 24 2017

Note: "fair" indicates few or no clouds below 12,000 feet with no
significant weather and/or obstructions to visibility.

!FLZ017-115-028-034-025-242000
...North Florida...

CITY           SKY/WX    TMP DP  RH WIND       PRES   REMARKS
TALLAHASSEE    PTSUNNY   79  52  38 SE16G23   30.29F
APALACHICOLA   SUNNY     72  61  68 SE15G23   30.31F
PERRY          MOSUNNY   80  49  34 E9        30.31F
CROSS CITY     PTSUNNY   81  52  36 E12       30.30F
JACKSONVILLE   PTSUNNY   74  52  46 SE20      30.37F
$$

!FLZ112-006-005-002-011-242000
...Florida Panhandle...

CITY           SKY/WX    TMP DP  RH WIND       PRES   REMARKS
MARIANNA       SUNNY     79  52  38 SE13      30.28F
BONIFAY        NOT AVBL
PANAMA CITY NW FAIR      77  57  50 SE14      30.28F
TYNDALL AFB    MOSUNNY   76  57  50 SE15G22   30.28F
TYND DRONE APT FAIR      76  58  52 SE14G33   30.28F
DE FUNIAK SPR  MOCLDY    77  54  44 SE9G17    30.29F
EGLIN AFB      PTSUNNY   75  57  52 SE15G24   30.29F
DESTIN         SUNNY     75  62  64 SE16G24   30.29F
HURLBURT       MOSUNNY   73  59  62 SE16G23   30.28F
CRESTVIEW      MOSUNNY   78  54  43 S9G23     30.29F
PENSACOLA      CLOUDY    71  61  70 SE16G24   30.29F
$$

!ALZ063-066-242000
...South Alabama...

CITY           SKY/WX    TMP DP  RH WIND       PRES   REMARKS
DOTHAN         SUNNY     77  52  41 S10G20    30.32F
OZARK CAIRNS   SUNNY     78  54  43 SE8G20    30.28F
FT RUCKER HELI SUNNY     76  53  44 SE9       30.29F
RUCKER HELI 3  FAIR      75  52  43 SE12      30.28F
RUCKER HELI 2  FAIR      78  52  40 E9G18     30.28F
FLORALA APT    PTSUNNY   77  54  44 S8G16     30.29F
ANDALUSIA      MOSUNNY   80  53  39 VRB6G16   30.28F
TROY           MOSUNNY   76  53  44 SE13G22   30.30F
EUFALA         FAIR      80  52  37 SE13G18   30.29F
MOBILE         CLOUDY    73  61  65 SE21G29   30.27F
$$

!GAZ120>161-242000
...Southwest and South Central Georgia...

CITY           SKY/WX    TMP DP  RH WIND       PRES   REMARKS
THOMASVILLE    FAIR      77  55  47 SE13G20   30.34F
BAINBRIDGE     SUNNY     79  52  38 SE10G20   30.31F
MOODY AFB      PTSUNNY   77  48  35 SE13G18   30.32F
VALDOSTA       PTSUNNY   77  51  40 SE12G21   30.33F
MOULTRIE       MOSUNNY   73  52  46 E6        30.34F
BLAKELY        SUNNY     79  48  34 E9G20     30.31F
ALBANY         SUNNY     77  52  41 SE15G21   30.34F
TIFTON         PTSUNNY   75  51  42 SE12G18   30.34F
FITZGERALD     FAIR      76  53  44 SE10      30.38F
CORDELE        FAIR      78  49  36 SE9G18    30.36F
AMERICUS       FAIR      73  45  35 SE14      30.35F
HOMERVILLE     FAIR      77  50  38 E9G17     30.35F
$$

!GMZ750-755-770-775-242000
...Coastal and Buoy Obs...

STATION/POSITION TIME  TEMP    WIND        PRES    VSBY  WAVE
                       AIR SEA DIR/SP/G                  HT/PER
                 (UTC) (F)     (DEG/KT/KT) (MB)    (MI)  (FT/S)
KEATON BEACH     1900   76      60/  9/ 13 1025.7F
CEDAR KEY        1900   73     110/ 10/ 11 1026.1F
C TOWER          1900   67     110/ 21/ 22 1026.7F
APALACHICOLA BUO 1850   69 69  100/ 16/ 17 1025.4F         5/ 5
PANAMA CITY BUOY 1850   70 71              1025.2F         7/ 7
MOBILE BUOY      1900   72 73  130/ 19/ 25 1023.6
ORANGE BCH AL BU 1850   69 69  130/ 16/ 19 1024.7F         7/ 8
$$




USA.gov is the U.S. government's official web portal to all federal, state and local government web resources and services.